owner,sensor,date,latitude,longitude,air_pressure(mBar),qcFlag 
TABS,ioos:station:wmo:42043:1,2009-03-01T00:00:00Z,28.9818,-94.9186,1021.91,11111222 
TABS,ioos:station:wmo:42043:1,2009-03-01T00:30:00Z,28.9818,-94.9186,1022.67,11111222 
TABS,ioos:station:wmo:42043:1,2009-03-01T01:00:00Z,28.9818,-94.9186,1023.35,11111222 
TABS,ioos:station:wmo:42043:1,2009-03-01T01:30:00Z,28.9818,-94.9186,1024.17,11111222 
TABS,ioos:station:wmo:42043:1,2009-03-01T02:00:00Z,28.9818,-94.9186,1025.07,11111222 
TABS,ioos:station:wmo:42043:1,2009-03-01T02:30:00Z,28.9818,-94.9186,1025.79,11111222 
TABS,ioos:station:wmo:42043:1,2009-03-01T03:00:00Z,28.9818,-94.9186,1026.17,11111222 
TABS,ioos:station:wmo:42043:1,2009-03-01T03:30:00Z,28.9818,-94.9186,1026.41,11111222 
TABS,ioos:station:wmo:42043:1,2009-03-01T04:00:00Z,28.9818,-94.9186,1026.82,11111222 
TABS,ioos:station:wmo:42043:1,2009-03-01T04:30:00Z,28.9818,-94.9186,1027.3,11111222 
TABS,ioos:station:wmo:42043:1,2009-03-01T05:00:00Z,28.9818,-94.9186,1027.79,11111222 
TABS,ioos:station:wmo:42043:1,2009-03-01T05:30:00Z,28.9818,-94.9186,1028.11,11111222 
TABS,ioos:station:wmo:42043:1,2009-03-01T06:00:00Z,28.9818,-94.9186,1028.25,11111222 
TABS,ioos:station:wmo:42043:1,2009-03-01T06:30:00Z,28.9818,-94.9186,1028.55,11111222 
TABS,ioos:station:wmo:42043:1,2009-03-01T07:00:00Z,28.9818,-94.9186,1028.81,11111222 
TABS,ioos:station:wmo:42043:1,2009-03-01T07:30:00Z,28.9818,-94.9186,1028.95,11111222 
TABS,ioos:station:wmo:42043:1,2009-03-01T08:00:00Z,28.9818,-94.9186,1029.15,11111222 
TABS,ioos:station:wmo:42043:1,2009-03-01T08:30:00Z,28.9818,-94.9186,1029.01,11111222 
TABS,ioos:station:wmo:42043:1,2009-03-01T09:00:00Z,28.9818,-94.9186,1029.15,11111222 
TABS,ioos:station:wmo:42043:1,2009-03-01T09:30:00Z,28.9818,-94.9186,1029.3,11111222 
TABS,ioos:station:wmo:42043:1,2009-03-01T10:00:00Z,28.9818,-94.9186,1029.69,11111222 
TABS,ioos:station:wmo:42043:1,2009-03-01T10:30:00Z,28.9818,-94.9186,1029.93,11111222 
TABS,ioos:station:wmo:42043:1,2009-03-01T11:00:00Z,28.9818,-94.9186,1030.17,11111222 
TABS,ioos:station:wmo:42043:1,2009-03-01T11:30:00Z,28.9818,-94.9186,1030.66,11111222 
TABS,ioos:station:wmo:42043:1,2009-03-01T12:00:00Z,28.9818,-94.9186,1030.63,11111222 
TABS,ioos:station:wmo:42043:1,2009-03-01T12:30:00Z,28.9818,-94.9186,1030.68,11111222 
TABS,ioos:station:wmo:42043:1,2009-03-01T13:00:00Z,28.9818,-94.9186,1031.21,11111222 
TABS,ioos:station:wmo:42043:1,2009-03-01T13:30:00Z,28.9818,-94.9186,1031.74,11111222 
TABS,ioos:station:wmo:42043:1,2009-03-01T14:00:00Z,28.9818,-94.9186,1031.77,11111222 
TABS,ioos:station:wmo:42043:1,2009-03-01T14:30:00Z,28.9818,-94.9186,1032.15,11111222 
TABS,ioos:station:wmo:42043:1,2009-03-01T15:00:00Z,28.9818,-94.9186,1032.43,11111222 
TABS,ioos:station:wmo:42043:1,2009-03-01T15:30:00Z,28.9818,-94.9186,1032.63,11111222 
TABS,ioos:station:wmo:42043:1,2009-03-01T16:00:00Z,28.9818,-94.9186,1032.69,11111222 
TABS,ioos:station:wmo:42043:1,2009-03-01T16:30:00Z,28.9818,-94.9186,1032.36,11111222 
TABS,ioos:station:wmo:42043:1,2009-03-01T17:00:00Z,28.9818,-94.9186,1032.28,11111222 
TABS,ioos:station:wmo:42043:1,2009-03-01T17:30:00Z,28.9818,-94.9186,1032.09,11111222 
TABS,ioos:station:wmo:42043:1,2009-03-01T18:00:00Z,28.9818,-94.9186,1031.71,11111222 
TABS,ioos:station:wmo:42043:1,2009-03-01T18:30:00Z,28.9818,-94.9186,1031.32,11111222 
TABS,ioos:station:wmo:42043:1,2009-03-01T19:00:00Z,28.9818,-94.9186,1030.71,11111222 
TABS,ioos:station:wmo:42043:1,2009-03-01T19:30:00Z,28.9818,-94.9186,1030.19,11111222 
TABS,ioos:station:wmo:42043:1,2009-03-01T20:00:00Z,28.9818,-94.9186,1029.59,11111222 
TABS,ioos:station:wmo:42043:1,2009-03-01T20:30:00Z,28.9818,-94.9186,1029.38,11111222 
TABS,ioos:station:wmo:42043:1,2009-03-01T21:00:00Z,28.9818,-94.9186,1029.06,11111222 
TABS,ioos:station:wmo:42043:1,2009-03-01T21:30:00Z,28.9818,-94.9186,1028.59,11111222 
TABS,ioos:station:wmo:42043:1,2009-03-01T22:00:00Z,28.9818,-94.9186,1028.29,11111222 
TABS,ioos:station:wmo:42043:1,2009-03-01T22:30:00Z,28.9818,-94.9186,1028.07,11111222 
TABS,ioos:station:wmo:42043:1,2009-03-01T23:00:00Z,28.9818,-94.9186,1027.85,11111222 
TABS,ioos:station:wmo:42043:1,2009-03-01T23:30:00Z,28.9818,-94.9186,1027.86,11111222 
TABS,ioos:station:wmo:42043:1,2009-03-02T00:00:00Z,28.9818,-94.9186,1027.97,11111222 
TABS,ioos:station:wmo:42043:1,2009-03-02T00:30:00Z,28.9818,-94.9186,1028.1,11111222 
TABS,ioos:station:wmo:42043:1,2009-03-02T01:00:00Z,28.9818,-94.9186,1027.92,11111222 
TABS,ioos:station:wmo:42043:1,2009-03-02T01:30:00Z,28.9818,-94.9186,1028.37,11111222 
TABS,ioos:station:wmo:42043:1,2009-03-02T02:00:00Z,28.9818,-94.9186,1028.63,11111222 
TABS,ioos:station:wmo:42043:1,2009-03-02T02:30:00Z,28.9818,-94.9186,1028.82,11111222 
TABS,ioos:station:wmo:42043:1,2009-03-02T03:00:00Z,28.9818,-94.9186,1029.1,11111222 
TABS,ioos:station:wmo:42043:1,2009-03-02T03:30:00Z,28.9818,-94.9186,1029.29,11111222 
TABS,ioos:station:wmo:42043:1,2009-03-02T04:00:00Z,28.9818,-94.9186,1029.4,11111222 
TABS,ioos:station:wmo:42043:1,2009-03-02T04:30:00Z,28.9818,-94.9186,1029.31,11111222 
TABS,ioos:station:wmo:42043:1,2009-03-02T05:00:00Z,28.9818,-94.9186,1029.13,11111222 
TABS,ioos:station:wmo:42043:1,2009-03-02T05:30:00Z,28.9818,-94.9186,1029.09,11111222 
TABS,ioos:station:wmo:42043:1,2009-03-02T06:00:00Z,28.9818,-94.9186,1028.89,11111222 
TABS,ioos:station:wmo:42043:1,2009-03-02T06:30:00Z,28.9818,-94.9186,1028.87,11111222 
TABS,ioos:station:wmo:42043:1,2009-03-02T07:00:00Z,28.9818,-94.9186,1028.73,11111222 
TABS,ioos:station:wmo:42043:1,2009-03-02T07:30:00Z,28.9818,-94.9186,1028.52,11111222 
TABS,ioos:station:wmo:42043:1,2009-03-02T08:00:00Z,28.9818,-94.9186,1028.57,11111222 
TABS,ioos:station:wmo:42043:1,2009-03-02T08:30:00Z,28.9818,-94.9186,1028.12,11111222 
TABS,ioos:station:wmo:42043:1,2009-03-02T09:00:00Z,28.9818,-94.9186,1027.98,11111222 
TABS,ioos:station:wmo:42043:1,2009-03-02T09:30:00Z,28.9818,-94.9186,1027.54,11111222 
TABS,ioos:station:wmo:42043:1,2009-03-02T10:00:00Z,28.9818,-94.9186,1027.64,11111222 
TABS,ioos:station:wmo:42043:1,2009-03-02T10:30:00Z,28.9818,-94.9186,1027.51,11111222 
TABS,ioos:station:wmo:42043:1,2009-03-02T11:00:00Z,28.9818,-94.9186,1027.07,11111222 
TABS,ioos:station:wmo:42043:1,2009-03-02T11:30:00Z,28.9818,-94.9186,1027.56,11111222 
TABS,ioos:station:wmo:42043:1,2009-03-02T12:00:00Z,28.9818,-94.9186,1027.53,11111222 
TABS,ioos:station:wmo:42043:1,2009-03-02T12:30:00Z,28.9818,-94.9186,1027.46,11111222 
TABS,ioos:station:wmo:42043:1,2009-03-02T13:00:00Z,28.9818,-94.9186,1027.64,11111222 
TABS,ioos:station:wmo:42043:1,2009-03-02T13:30:00Z,28.9818,-94.9186,1027.7,11111222 
TABS,ioos:station:wmo:42043:1,2009-03-02T14:00:00Z,28.9818,-94.9186,1028.25,11111222 
TABS,ioos:station:wmo:42043:1,2009-03-02T14:30:00Z,28.9818,-94.9186,1028.65,11111222 
TABS,ioos:station:wmo:42043:1,2009-03-02T15:00:00Z,28.9818,-94.9186,1028.9,11111222 
TABS,ioos:station:wmo:42043:1,2009-03-02T15:30:00Z,28.9818,-94.9186,1029.1,11111222 
TABS,ioos:station:wmo:42043:1,2009-03-02T16:00:00Z,28.9818,-94.9186,1029.13,11111222 
TABS,ioos:station:wmo:42043:1,2009-03-02T16:30:00Z,28.9818,-94.9186,1028.93,11111222 
TABS,ioos:station:wmo:42043:1,2009-03-02T17:00:00Z,28.9818,-94.9186,1028.97,11111222 
TABS,ioos:station:wmo:42043:1,2009-03-02T17:30:00Z,28.9818,-94.9186,1028.54,11111222 
TABS,ioos:station:wmo:42043:1,2009-03-02T18:00:00Z,28.9818,-94.9186,1028.12,11111222 
TABS,ioos:station:wmo:42043:1,2009-03-02T18:30:00Z,28.9818,-94.9186,1027.31,11111222 
TABS,ioos:station:wmo:42043:1,2009-03-02T19:00:00Z,28.9818,-94.9186,1026.67,11111222 
TABS,ioos:station:wmo:42043:1,2009-03-02T19:30:00Z,28.9818,-94.9186,1025.94,11111222 
TABS,ioos:station:wmo:42043:1,2009-03-02T20:00:00Z,28.9818,-94.9186,1025.59,11111222 
TABS,ioos:station:wmo:42043:1,2009-03-02T20:30:00Z,28.9818,-94.9186,1025.2,11111222 
TABS,ioos:station:wmo:42043:1,2009-03-02T21:00:00Z,28.9818,-94.9186,1025.2,11111222 
TABS,ioos:station:wmo:42043:1,2009-03-02T21:30:00Z,28.9818,-94.9186,1024.88,11111222 
TABS,ioos:station:wmo:42043:1,2009-03-02T22:00:00Z,28.9818,-94.9186,1024.71,11111222 
TABS,ioos:station:wmo:42043:1,2009-03-02T22:30:00Z,28.9818,-94.9186,1024.52,11111222 
TABS,ioos:station:wmo:42043:1,2009-03-02T23:00:00Z,28.9818,-94.9186,1024.36,11111222 
TABS,ioos:station:wmo:42043:1,2009-03-02T23:30:00Z,28.9818,-94.9186,1024.52,11111222 
TABS,ioos:station:wmo:42043:1,2009-03-03T00:00:00Z,28.9818,-94.9186,1024.43,11111222 
TABS,ioos:station:wmo:42043:1,2009-03-03T00:30:00Z,28.9818,-94.9186,1024.44,11111222 
TABS,ioos:station:wmo:42043:1,2009-03-03T01:00:00Z,28.9818,-94.9186,1024.92,11111222 
TABS,ioos:station:wmo:42043:1,2009-03-03T01:30:00Z,28.9818,-94.9186,1024.94,11111222 
TABS,ioos:station:wmo:42043:1,2009-03-03T02:00:00Z,28.9818,-94.9186,1024.58,11111222 
TABS,ioos:station:wmo:42043:1,2009-03-03T02:30:00Z,28.9818,-94.9186,1024.57,11111222 
TABS,ioos:station:wmo:42043:1,2009-03-03T03:00:00Z,28.9818,-94.9186,1024.95,11111222 
TABS,ioos:station:wmo:42043:1,2009-03-03T03:30:00Z,28.9818,-94.9186,1024.93,11111222 
TABS,ioos:station:wmo:42043:1,2009-03-03T04:00:00Z,28.9818,-94.9186,1024.95,11111222 
TABS,ioos:station:wmo:42043:1,2009-03-03T04:30:00Z,28.9818,-94.9186,1024.72,11111222 
TABS,ioos:station:wmo:42043:1,2009-03-03T05:00:00Z,28.9818,-94.9186,1024.85,11111222 
TABS,ioos:station:wmo:42043:1,2009-03-03T05:30:00Z,28.9818,-94.9186,1025.0,11111222 
TABS,ioos:station:wmo:42043:1,2009-03-03T06:00:00Z,28.9818,-94.9186,1024.85,11111222 
TABS,ioos:station:wmo:42043:1,2009-03-03T06:30:00Z,28.9818,-94.9186,1024.41,11111222 
TABS,ioos:station:wmo:42043:1,2009-03-03T07:00:00Z,28.9818,-94.9186,1024.31,11111222 
TABS,ioos:station:wmo:42043:1,2009-03-03T07:30:00Z,28.9818,-94.9186,1024.3,11111222 
TABS,ioos:station:wmo:42043:1,2009-03-03T08:00:00Z,28.9818,-94.9186,1024.31,11111222 
TABS,ioos:station:wmo:42043:1,2009-03-03T08:30:00Z,28.9818,-94.9186,1024.19,11111222 
TABS,ioos:station:wmo:42043:1,2009-03-03T09:00:00Z,28.9818,-94.9186,1024.05,11111222 
TABS,ioos:station:wmo:42043:1,2009-03-03T09:30:00Z,28.9818,-94.9186,1023.95,11111222 
TABS,ioos:station:wmo:42043:1,2009-03-03T10:00:00Z,28.9818,-94.9186,1024.02,11111222 
TABS,ioos:station:wmo:42043:1,2009-03-03T10:30:00Z,28.9818,-94.9186,1024.2,11111222 
TABS,ioos:station:wmo:42043:1,2009-03-03T11:00:00Z,28.9818,-94.9186,1024.52,11111222 
TABS,ioos:station:wmo:42043:1,2009-03-03T11:30:00Z,28.9818,-94.9186,1024.68,11111222 
TABS,ioos:station:wmo:42043:1,2009-03-03T12:00:00Z,28.9818,-94.9186,1024.85,11111222 
TABS,ioos:station:wmo:42043:1,2009-03-03T12:30:00Z,28.9818,-94.9186,1025.03,11111222 
TABS,ioos:station:wmo:42043:1,2009-03-03T13:00:00Z,28.9818,-94.9186,1025.08,11111222 
TABS,ioos:station:wmo:42043:1,2009-03-03T13:30:00Z,28.9818,-94.9186,1025.42,11111222 
TABS,ioos:station:wmo:42043:1,2009-03-03T14:00:00Z,28.9818,-94.9186,1025.87,11111222 
TABS,ioos:station:wmo:42043:1,2009-03-03T14:30:00Z,28.9818,-94.9186,1025.93,11111222 
TABS,ioos:station:wmo:42043:1,2009-03-03T15:00:00Z,28.9818,-94.9186,1026.27,11111222 
TABS,ioos:station:wmo:42043:1,2009-03-03T15:30:00Z,28.9818,-94.9186,1026.64,11111222 
TABS,ioos:station:wmo:42043:1,2009-03-03T16:00:00Z,28.9818,-94.9186,1026.75,11111222 
TABS,ioos:station:wmo:42043:1,2009-03-03T16:30:00Z,28.9818,-94.9186,1026.87,11111222 
TABS,ioos:station:wmo:42043:1,2009-03-03T17:00:00Z,28.9818,-94.9186,1026.68,11111222 
TABS,ioos:station:wmo:42043:1,2009-03-03T17:30:00Z,28.9818,-94.9186,1026.02,11111222 
TABS,ioos:station:wmo:42043:1,2009-03-03T18:00:00Z,28.9818,-94.9186,1025.85,11111222 
TABS,ioos:station:wmo:42043:1,2009-03-03T18:30:00Z,28.9818,-94.9186,1025.75,11111222 
TABS,ioos:station:wmo:42043:1,2009-03-03T19:00:00Z,28.9818,-94.9186,1025.2,11111222 
TABS,ioos:station:wmo:42043:1,2009-03-03T19:30:00Z,28.9818,-94.9186,1024.91,11111222 
TABS,ioos:station:wmo:42043:1,2009-03-03T20:00:00Z,28.9818,-94.9186,1024.72,11111222 
TABS,ioos:station:wmo:42043:1,2009-03-03T20:30:00Z,28.9818,-94.9186,1024.57,11111222 
TABS,ioos:station:wmo:42043:1,2009-03-03T21:00:00Z,28.9818,-94.9186,1024.26,11111222 
TABS,ioos:station:wmo:42043:1,2009-03-03T21:30:00Z,28.9818,-94.9186,1024.25,11111222 
TABS,ioos:station:wmo:42043:1,2009-03-03T22:00:00Z,28.9818,-94.9186,1024.05,11111222 
TABS,ioos:station:wmo:42043:1,2009-03-03T22:30:00Z,28.9818,-94.9186,1023.56,11111222 
TABS,ioos:station:wmo:42043:1,2009-03-03T23:00:00Z,28.9818,-94.9186,1023.66,11111222 
TABS,ioos:station:wmo:42043:1,2009-03-03T23:30:00Z,28.9818,-94.9186,1023.5,11111222 
TABS,ioos:station:wmo:42043:1,2009-03-04T00:00:00Z,28.9818,-94.9186,1023.44,11111222 
TABS,ioos:station:wmo:42043:1,2009-03-04T00:30:00Z,28.9818,-94.9186,1023.18,11111222 
TABS,ioos:station:wmo:42043:1,2009-03-04T01:00:00Z,28.9818,-94.9186,1023.28,11111222 
TABS,ioos:station:wmo:42043:1,2009-03-04T01:30:00Z,28.9818,-94.9186,1023.43,11111222 
TABS,ioos:station:wmo:42043:1,2009-03-04T02:00:00Z,28.9818,-94.9186,1023.5,11111222 
TABS,ioos:station:wmo:42043:1,2009-03-04T02:30:00Z,28.9818,-94.9186,1023.41,11111222 
TABS,ioos:station:wmo:42043:1,2009-03-04T03:00:00Z,28.9818,-94.9186,1023.34,11111222 
TABS,ioos:station:wmo:42043:1,2009-03-04T03:30:00Z,28.9818,-94.9186,1023.6,11111222 
TABS,ioos:station:wmo:42043:1,2009-03-04T04:00:00Z,28.9818,-94.9186,1023.39,11111222 
TABS,ioos:station:wmo:42043:1,2009-03-04T04:30:00Z,28.9818,-94.9186,1023.34,11111222 
TABS,ioos:station:wmo:42043:1,2009-03-04T05:00:00Z,28.9818,-94.9186,1022.84,11111222 
TABS,ioos:station:wmo:42043:1,2009-03-04T05:30:00Z,28.9818,-94.9186,1022.83,11111222 
TABS,ioos:station:wmo:42043:1,2009-03-04T06:00:00Z,28.9818,-94.9186,1022.44,11111222 
TABS,ioos:station:wmo:42043:1,2009-03-04T06:30:00Z,28.9818,-94.9186,1022.03,11111222 
TABS,ioos:station:wmo:42043:1,2009-03-04T07:00:00Z,28.9818,-94.9186,1021.8,11111222 
TABS,ioos:station:wmo:42043:1,2009-03-04T07:30:00Z,28.9818,-94.9186,1021.89,11111222 
TABS,ioos:station:wmo:42043:1,2009-03-04T08:00:00Z,28.9818,-94.9186,1021.6,11111222 
TABS,ioos:station:wmo:42043:1,2009-03-04T08:30:00Z,28.9818,-94.9186,1021.33,11111222 
TABS,ioos:station:wmo:42043:1,2009-03-04T09:00:00Z,28.9818,-94.9186,1021.01,11111222 
TABS,ioos:station:wmo:42043:1,2009-03-04T09:30:00Z,28.9818,-94.9186,1021.14,11111222 
TABS,ioos:station:wmo:42043:1,2009-03-04T10:00:00Z,28.9818,-94.9186,1021.01,11111222 
TABS,ioos:station:wmo:42043:1,2009-03-04T10:30:00Z,28.9818,-94.9186,1021.25,11111222 
TABS,ioos:station:wmo:42043:1,2009-03-04T11:00:00Z,28.9818,-94.9186,1021.51,11111222 
TABS,ioos:station:wmo:42043:1,2009-03-04T11:30:00Z,28.9818,-94.9186,1021.87,11111222 
TABS,ioos:station:wmo:42043:1,2009-03-04T12:00:00Z,28.9818,-94.9186,1022.09,11111222 
TABS,ioos:station:wmo:42043:1,2009-03-04T12:30:00Z,28.9818,-94.9186,1022.34,11111222 
TABS,ioos:station:wmo:42043:1,2009-03-04T13:00:00Z,28.9818,-94.9186,1022.46,11111222 
TABS,ioos:station:wmo:42043:1,2009-03-04T13:30:00Z,28.9818,-94.9186,1022.84,11111222 
TABS,ioos:station:wmo:42043:1,2009-03-04T14:00:00Z,28.9818,-94.9186,1023.09,11111222 
TABS,ioos:station:wmo:42043:1,2009-03-04T14:30:00Z,28.9818,-94.9186,1023.21,11111222 
TABS,ioos:station:wmo:42043:1,2009-03-04T15:00:00Z,28.9818,-94.9186,1023.38,11111222 
TABS,ioos:station:wmo:42043:1,2009-03-04T15:30:00Z,28.9818,-94.9186,1023.49,11111222 
TABS,ioos:station:wmo:42043:1,2009-03-04T16:00:00Z,28.9818,-94.9186,1023.63,11111222 
TABS,ioos:station:wmo:42043:1,2009-03-04T16:30:00Z,28.9818,-94.9186,1023.75,11111222 
TABS,ioos:station:wmo:42043:1,2009-03-04T17:00:00Z,28.9818,-94.9186,1023.77,11111222 
TABS,ioos:station:wmo:42043:1,2009-03-04T17:30:00Z,28.9818,-94.9186,1023.56,11111222 
TABS,ioos:station:wmo:42043:1,2009-03-04T18:00:00Z,28.9818,-94.9186,1023.27,11111222 
TABS,ioos:station:wmo:42043:1,2009-03-04T18:30:00Z,28.9818,-94.9186,1022.93,11111222 
TABS,ioos:station:wmo:42043:1,2009-03-04T19:00:00Z,28.9818,-94.9186,1022.54,11111222 
TABS,ioos:station:wmo:42043:1,2009-03-04T19:30:00Z,28.9818,-94.9186,1022.15,11111222 
TABS,ioos:station:wmo:42043:1,2009-03-04T20:00:00Z,28.9818,-94.9186,1021.85,11111222 
TABS,ioos:station:wmo:42043:1,2009-03-04T20:30:00Z,28.9818,-94.9186,1021.66,11111222 
TABS,ioos:station:wmo:42043:1,2009-03-04T21:00:00Z,28.9818,-94.9186,1021.38,11111222 
TABS,ioos:station:wmo:42043:1,2009-03-04T21:30:00Z,28.9818,-94.9186,1021.25,11111222 
TABS,ioos:station:wmo:42043:1,2009-03-04T22:00:00Z,28.9818,-94.9186,1021.22,11111222 
TABS,ioos:station:wmo:42043:1,2009-03-04T22:30:00Z,28.9818,-94.9186,1021.09,11111222 
TABS,ioos:station:wmo:42043:1,2009-03-04T23:00:00Z,28.9818,-94.9186,1021.02,11111222 
TABS,ioos:station:wmo:42043:1,2009-03-04T23:30:00Z,28.9818,-94.9186,1020.77,11111222 
TABS,ioos:station:wmo:42043:1,2009-03-05T00:00:00Z,28.9818,-94.9186,1020.81,11111222 
TABS,ioos:station:wmo:42043:1,2009-03-05T00:30:00Z,28.9818,-94.9186,1020.77,11111222 
TABS,ioos:station:wmo:42043:1,2009-03-05T01:00:00Z,28.9818,-94.9186,1020.8,11111222 
TABS,ioos:station:wmo:42043:1,2009-03-05T01:30:00Z,28.9818,-94.9186,1020.77,11111222 
TABS,ioos:station:wmo:42043:1,2009-03-05T02:00:00Z,28.9818,-94.9186,1021.04,11111222 
TABS,ioos:station:wmo:42043:1,2009-03-05T02:30:00Z,28.9818,-94.9186,1021.15,11111222 
TABS,ioos:station:wmo:42043:1,2009-03-05T03:00:00Z,28.9818,-94.9186,1021.19,11111222 
TABS,ioos:station:wmo:42043:1,2009-03-05T03:30:00Z,28.9818,-94.9186,1021.34,11111222 
TABS,ioos:station:wmo:42043:1,2009-03-05T04:00:00Z,28.9818,-94.9186,1021.22,11111222 
TABS,ioos:station:wmo:42043:1,2009-03-05T04:30:00Z,28.9818,-94.9186,1021.48,11111222 
TABS,ioos:station:wmo:42043:1,2009-03-05T05:00:00Z,28.9818,-94.9186,1021.48,11111222 
TABS,ioos:station:wmo:42043:1,2009-03-05T05:30:00Z,28.9818,-94.9186,1021.33,11111222 
TABS,ioos:station:wmo:42043:1,2009-03-05T06:00:00Z,28.9818,-94.9186,1021.2,11111222 
TABS,ioos:station:wmo:42043:1,2009-03-05T06:30:00Z,28.9818,-94.9186,1021.11,11111222 
TABS,ioos:station:wmo:42043:1,2009-03-05T07:00:00Z,28.9818,-94.9186,1021.0,11111222 
TABS,ioos:station:wmo:42043:1,2009-03-05T07:30:00Z,28.9818,-94.9186,1020.77,11111222 
TABS,ioos:station:wmo:42043:1,2009-03-05T08:00:00Z,28.9818,-94.9186,1020.62,11111222 
TABS,ioos:station:wmo:42043:1,2009-03-05T08:30:00Z,28.9818,-94.9186,1020.49,11111222 
TABS,ioos:station:wmo:42043:1,2009-03-05T09:00:00Z,28.9818,-94.9186,1020.39,11111222 
TABS,ioos:station:wmo:42043:1,2009-03-05T09:30:00Z,28.9818,-94.9186,1020.27,11111222 
TABS,ioos:station:wmo:42043:1,2009-03-05T10:00:00Z,28.9818,-94.9186,1020.47,11111222 
TABS,ioos:station:wmo:42043:1,2009-03-05T10:30:00Z,28.9818,-94.9186,1020.67,11111222 
TABS,ioos:station:wmo:42043:1,2009-03-05T11:00:00Z,28.9818,-94.9186,1020.93,11111222 
TABS,ioos:station:wmo:42043:1,2009-03-05T11:30:00Z,28.9818,-94.9186,1021.07,11111222 
TABS,ioos:station:wmo:42043:1,2009-03-05T12:00:00Z,28.9818,-94.9186,1021.14,11111222 
TABS,ioos:station:wmo:42043:1,2009-03-05T12:30:00Z,28.9818,-94.9186,1021.33,11111222 
TABS,ioos:station:wmo:42043:1,2009-03-05T13:00:00Z,28.9818,-94.9186,1021.8,11111222 
TABS,ioos:station:wmo:42043:1,2009-03-05T13:30:00Z,28.9818,-94.9186,1021.93,11111222 
TABS,ioos:station:wmo:42043:1,2009-03-05T14:00:00Z,28.9818,-94.9186,1022.26,11111222 
TABS,ioos:station:wmo:42043:1,2009-03-05T14:30:00Z,28.9818,-94.9186,1022.72,11111222 
TABS,ioos:station:wmo:42043:1,2009-03-05T15:00:00Z,28.9818,-94.9186,1022.89,11111222 
TABS,ioos:station:wmo:42043:1,2009-03-05T15:30:00Z,28.9818,-94.9186,1023.3,11111222 
TABS,ioos:station:wmo:42043:1,2009-03-05T16:00:00Z,28.9818,-94.9186,1023.57,11111222 
TABS,ioos:station:wmo:42043:1,2009-03-05T16:30:00Z,28.9818,-94.9186,1023.7,11111222 
TABS,ioos:station:wmo:42043:1,2009-03-05T17:00:00Z,28.9818,-94.9186,1023.79,11111222 
TABS,ioos:station:wmo:42043:1,2009-03-05T17:30:00Z,28.9818,-94.9186,1023.51,11111222 
TABS,ioos:station:wmo:42043:1,2009-03-05T18:00:00Z,28.9818,-94.9186,1023.38,11111222 
TABS,ioos:station:wmo:42043:1,2009-03-05T18:30:00Z,28.9818,-94.9186,1023.18,11111222 
TABS,ioos:station:wmo:42043:1,2009-03-05T19:00:00Z,28.9818,-94.9186,1022.81,11111222 
TABS,ioos:station:wmo:42043:1,2009-03-05T19:30:00Z,28.9818,-94.9186,1022.53,11111222 
TABS,ioos:station:wmo:42043:1,2009-03-05T20:00:00Z,28.9818,-94.9186,1021.96,11111222 
TABS,ioos:station:wmo:42043:1,2009-03-05T20:30:00Z,28.9818,-94.9186,1021.65,11111222 
TABS,ioos:station:wmo:42043:1,2009-03-05T21:00:00Z,28.9818,-94.9186,1021.5,11111222 
TABS,ioos:station:wmo:42043:1,2009-03-05T21:30:00Z,28.9818,-94.9186,1021.41,11111222 
TABS,ioos:station:wmo:42043:1,2009-03-05T22:00:00Z,28.9818,-94.9186,1021.25,11111222 
TABS,ioos:station:wmo:42043:1,2009-03-05T22:30:00Z,28.9818,-94.9186,1021.09,11111222 
TABS,ioos:station:wmo:42043:1,2009-03-05T23:00:00Z,28.9818,-94.9186,1020.63,11111222 
TABS,ioos:station:wmo:42043:1,2009-03-05T23:30:00Z,28.9818,-94.9186,1020.64,11111222 
TABS,ioos:station:wmo:42043:1,2009-03-06T00:00:00Z,28.9818,-94.9186,1020.9,11111222 
TABS,ioos:station:wmo:42043:1,2009-03-06T00:30:00Z,28.9818,-94.9186,1020.98,11111222 
TABS,ioos:station:wmo:42043:1,2009-03-06T01:00:00Z,28.9818,-94.9186,1021.24,11111222 
TABS,ioos:station:wmo:42043:1,2009-03-06T01:30:00Z,28.9818,-94.9186,1021.56,11111222 
TABS,ioos:station:wmo:42043:1,2009-03-06T02:00:00Z,28.9818,-94.9186,1021.85,11111222 
TABS,ioos:station:wmo:42043:1,2009-03-06T02:30:00Z,28.9818,-94.9186,1022.12,11111222 
TABS,ioos:station:wmo:42043:1,2009-03-06T03:00:00Z,28.9818,-94.9186,1022.45,11111222 
TABS,ioos:station:wmo:42043:1,2009-03-06T03:30:00Z,28.9818,-94.9186,1022.58,11111222 
TABS,ioos:station:wmo:42043:1,2009-03-06T04:00:00Z,28.9818,-94.9186,1023.04,11111222 
TABS,ioos:station:wmo:42043:1,2009-03-06T04:30:00Z,28.9818,-94.9186,1023.08,11111222 
TABS,ioos:station:wmo:42043:1,2009-03-06T05:00:00Z,28.9818,-94.9186,1023.02,11111222 
TABS,ioos:station:wmo:42043:1,2009-03-06T05:30:00Z,28.9818,-94.9186,1022.84,11111222 
TABS,ioos:station:wmo:42043:1,2009-03-06T06:00:00Z,28.9818,-94.9186,1022.74,11111222 
TABS,ioos:station:wmo:42043:1,2009-03-06T06:30:00Z,28.9818,-94.9186,1022.71,11111222 
TABS,ioos:station:wmo:42043:1,2009-03-06T07:00:00Z,28.9818,-94.9186,1022.53,11111222 
TABS,ioos:station:wmo:42043:1,2009-03-06T07:30:00Z,28.9818,-94.9186,1022.44,11111222 
TABS,ioos:station:wmo:42043:1,2009-03-06T08:00:00Z,28.9818,-94.9186,1022.26,11111222 
TABS,ioos:station:wmo:42043:1,2009-03-06T08:30:00Z,28.9818,-94.9186,1021.94,11111222 
TABS,ioos:station:wmo:42043:1,2009-03-06T09:00:00Z,28.9818,-94.9186,1021.79,11111222 
TABS,ioos:station:wmo:42043:1,2009-03-06T09:30:00Z,28.9818,-94.9186,1021.66,11111222 
TABS,ioos:station:wmo:42043:1,2009-03-06T10:00:00Z,28.9818,-94.9186,1021.63,11111222 
TABS,ioos:station:wmo:42043:1,2009-03-06T10:30:00Z,28.9818,-94.9186,1021.81,11111222 
TABS,ioos:station:wmo:42043:1,2009-03-06T11:00:00Z,28.9818,-94.9186,1022.03,11111222 
TABS,ioos:station:wmo:42043:1,2009-03-06T11:30:00Z,28.9818,-94.9186,1022.07,11111222 
TABS,ioos:station:wmo:42043:1,2009-03-06T12:00:00Z,28.9818,-94.9186,1022.01,11111222 
TABS,ioos:station:wmo:42043:1,2009-03-06T12:30:00Z,28.9818,-94.9186,1022.05,11111222 
TABS,ioos:station:wmo:42043:1,2009-03-06T13:00:00Z,28.9818,-94.9186,1022.13,11111222 
TABS,ioos:station:wmo:42043:1,2009-03-06T13:30:00Z,28.9818,-94.9186,1022.39,11111222 
TABS,ioos:station:wmo:42043:1,2009-03-06T14:00:00Z,28.9818,-94.9186,1022.81,11111222 
TABS,ioos:station:wmo:42043:1,2009-03-06T14:30:00Z,28.9818,-94.9186,1022.74,11111222 
TABS,ioos:station:wmo:42043:1,2009-03-06T15:00:00Z,28.9818,-94.9186,1023.11,11111222 
TABS,ioos:station:wmo:42043:1,2009-03-06T15:30:00Z,28.9818,-94.9186,1023.22,11111222 
TABS,ioos:station:wmo:42043:1,2009-03-06T16:00:00Z,28.9818,-94.9186,1023.25,11111222 
TABS,ioos:station:wmo:42043:1,2009-03-06T16:30:00Z,28.9818,-94.9186,1023.55,11111222 
TABS,ioos:station:wmo:42043:1,2009-03-06T17:00:00Z,28.9818,-94.9186,1023.4,11111222 
TABS,ioos:station:wmo:42043:1,2009-03-06T17:30:00Z,28.9818,-94.9186,1023.12,11111222 
TABS,ioos:station:wmo:42043:1,2009-03-06T18:00:00Z,28.9818,-94.9186,1022.79,11111222 
TABS,ioos:station:wmo:42043:1,2009-03-06T18:30:00Z,28.9818,-94.9186,1022.64,11111222 